EWG7PL ENBR-EDDH

Flight info

Callsign EWG7PL
Flight time 1h 14m
Altitude 39000
Route TUXIL DCT ZOL DCT ATTUS DCT GIKOG DCT OSTOR/N0385F230 T904 RIBSO RIBSO3P
Aircraft A320/M-SDE3FGHIRWY/LB1

Departure

Time 2026-04-24 15:55
Airport Bergen Airport, Flesland (ENBR)

Arrival

Time 2026-04-24 17:09
Airport Hamburg Helmut Schmidt Airport (EDDH)
Time Latitude Longitude Altitude Speed Heading
2026-04-24 15:27 60.28996 5.22720 175 ft 0 kts 180°
2026-04-24 15:46 60.29006 5.22721 175 ft 4 kts 159°
2026-04-24 15:46 60.29027 5.22705 175 ft 4 kts 170°
2026-04-24 15:46 60.29046 5.22706 176 ft 4 kts 246°
2026-04-24 15:46 60.29047 5.22753 176 ft 4 kts 280°
2026-04-24 15:47 60.29042 5.22806 176 ft 4 kts 284°
2026-04-24 15:47 60.29040 5.22823 176 ft 0 kts 287°
2026-04-24 15:50 60.29042 5.22812 176 ft 3 kts 287°
2026-04-24 15:50 60.29049 5.22731 176 ft 7 kts 279°
2026-04-24 15:50 60.29047 5.22613 176 ft 10 kts 260°
2026-04-24 15:50 60.29036 5.22465 176 ft 12 kts 261°
2026-04-24 15:51 60.29067 5.22344 177 ft 11 kts 336°
2026-04-24 15:51 60.29055 5.22236 175 ft 12 kts 182°
2026-04-24 15:51 60.28968 5.22262 172 ft 13 kts 172°
2026-04-24 15:51 60.28863 5.22299 171 ft 16 kts 169°
2026-04-24 15:52 60.28755 5.22335 169 ft 16 kts 172°
2026-04-24 15:52 60.28646 5.22369 167 ft 16 kts 171°
2026-04-24 15:52 60.28534 5.22406 165 ft 17 kts 171°
2026-04-24 15:52 60.28418 5.22446 161 ft 17 kts 170°
2026-04-24 15:53 60.28322 5.22476 159 ft 10 kts 178°
2026-04-24 15:53 60.28283 5.22376 156 ft 12 kts 260°
2026-04-24 15:53 60.28278 5.22203 154 ft 11 kts 290°
2026-04-24 15:53 60.28333 5.22152 155 ft 0 kts 351°
2026-04-24 15:54 60.28562 5.22075 160 ft 71 kts 350°
2026-04-24 15:54 60.29265 5.21836 157 ft 132 kts 351°
2026-04-24 15:54 60.30302 5.21498 436 ft 156 kts 348°
2026-04-24 15:55 60.31359 5.21126 1340 ft 153 kts 348°
2026-04-24 15:55 60.32436 5.20762 1941 ft 167 kts 349°
2026-04-24 15:55 60.33651 5.20342 2355 ft 188 kts 349°
2026-04-24 15:55 60.35036 5.19844 2739 ft 215 kts 349°
2026-04-24 15:56 60.36580 5.19279 3360 ft 234 kts 349°
2026-04-24 15:56 60.38230 5.18727 4198 ft 242 kts 350°
2026-04-24 15:56 60.39907 5.18195 5204 ft 246 kts 349°
2026-04-24 15:56 60.41610 5.17640 6141 ft 249 kts 348°
2026-04-24 15:57 60.43329 5.17064 7086 ft 252 kts 347°
2026-04-24 15:57 60.45071 5.16464 7993 ft 256 kts 346°
2026-04-24 15:57 60.46801 5.15567 8849 ft 256 kts 330°
2026-04-24 15:57 60.48136 5.13251 9759 ft 255 kts 303°
2026-04-24 15:58 60.48740 5.09896 10631 ft 258 kts 278°
2026-04-24 15:58 60.48603 5.06212 11435 ft 266 kts 264°
2026-04-24 15:58 60.48197 5.02541 12296 ft 271 kts 255°
2026-04-24 15:58 60.47155 4.99280 13017 ft 293 kts 228°
2026-04-24 15:59 60.45286 4.97245 13462 ft 328 kts 201°
2026-04-24 15:59 60.42891 4.96839 13709 ft 361 kts 184°
2026-04-24 15:59 60.40321 4.97317 14174 ft 377 kts 177°
2026-04-24 15:59 60.37677 4.98168 14839 ft 382 kts 175°
2026-04-24 16:00 60.35080 4.99066 15496 ft 385 kts 175°
2026-04-24 16:00 60.32430 4.99902 16186 ft 387 kts 177°
2026-04-24 16:00 60.29747 5.00625 16870 ft 389 kts 178°
2026-04-24 16:00 60.27051 5.01339 17566 ft 394 kts 175°
2026-04-24 16:01 60.24340 5.02360 18251 ft 397 kts 174°
2026-04-24 16:01 60.21619 5.03479 18867 ft 402 kts 172°
2026-04-24 16:01 60.18890 5.04802 19439 ft 406 kts 171°
2026-04-24 16:01 60.16149 5.06260 20016 ft 410 kts 170°
2026-04-24 16:02 60.13385 5.07777 20577 ft 413 kts 170°
2026-04-24 16:02 60.10607 5.09303 21161 ft 416 kts 170°
2026-04-24 16:02 60.07795 5.10820 21733 ft 419 kts 171°
2026-04-24 16:02 60.04970 5.12310 22256 ft 422 kts 171°
2026-04-24 16:03 60.02113 5.13783 22798 ft 426 kts 171°
2026-04-24 16:03 59.99232 5.15251 23330 ft 429 kts 172°
2026-04-24 16:03 59.96326 5.16731 23830 ft 432 kts 172°
2026-04-24 16:03 59.93397 5.18228 24270 ft 436 kts 172°
2026-04-24 16:04 59.90451 5.19730 24680 ft 439 kts 172°
2026-04-24 16:04 59.87483 5.21240 25090 ft 442 kts 172°
2026-04-24 16:04 59.84498 5.22757 25490 ft 444 kts 172°
2026-04-24 16:04 59.81496 5.24280 25888 ft 447 kts 172°
2026-04-24 16:05 59.75432 5.27355 26600 ft 453 kts 171°
2026-04-24 16:05 59.72364 5.28910 26972 ft 456 kts 171°
2026-04-24 16:06 59.66175 5.32047 27706 ft 461 kts 171°
2026-04-24 16:06 59.63053 5.33629 28064 ft 464 kts 171°
2026-04-24 16:06 59.56798 5.36776 28769 ft 469 kts 171°
2026-04-24 16:07 59.53583 5.38385 29096 ft 472 kts 172°
2026-04-24 16:07 59.50442 5.39955 29428 ft 474 kts 172°
2026-04-24 16:07 59.44014 5.43152 30012 ft 479 kts 171°
2026-04-24 16:08 59.40773 5.44758 30300 ft 481 kts 172°
2026-04-24 16:08 59.34221 5.47533 30803 ft 482 kts 175°
2026-04-24 16:09 59.27589 5.49774 31283 ft 484 kts 176°
2026-04-24 16:09 59.24268 5.50868 31559 ft 485 kts 176°
2026-04-24 16:09 59.20947 5.51998 31879 ft 484 kts 175°
2026-04-24 16:09 59.17634 5.53170 32176 ft 483 kts 175°
2026-04-24 16:10 59.07745 5.56788 33159 ft 481 kts 174°
2026-04-24 16:11 59.01179 5.59171 33801 ft 479 kts 175°
2026-04-24 16:11 58.97895 5.60349 34127 ft 479 kts 175°
2026-04-24 16:11 58.94630 5.61509 34413 ft 478 kts 175°
2026-04-24 16:12 58.88099 5.64028 34934 ft 481 kts 168°
2026-04-24 16:12 58.84948 5.66240 35169 ft 485 kts 159°
2026-04-24 16:12 58.78809 5.71703 35680 ft 485 kts 159°
2026-04-24 16:13 58.75744 5.74429 35927 ft 485 kts 159°
2026-04-24 16:13 58.69622 5.79840 36385 ft 484 kts 159°
2026-04-24 16:14 58.63506 5.85204 36827 ft 483 kts 159°
2026-04-24 16:14 58.60449 5.87874 37057 ft 482 kts 159°
2026-04-24 16:14 58.54344 5.93196 37144 ft 481 kts 159°
2026-04-24 16:15 58.45206 6.01128 37148 ft 480 kts 159°
2026-04-24 16:16 58.36109 6.08969 37140 ft 480 kts 159°
2026-04-24 16:17 58.20828 6.22073 37115 ft 481 kts 159°
2026-04-24 16:18 58.08593 6.32458 37110 ft 482 kts 159°
2026-04-24 16:19 57.99449 6.40183 37077 ft 482 kts 159°
2026-04-24 16:20 57.90275 6.47872 37101 ft 481 kts 159°
2026-04-24 16:20 57.81109 6.55512 37119 ft 480 kts 159°
2026-04-24 16:21 57.71962 6.63113 37095 ft 479 kts 159°
2026-04-24 16:22 57.65874 6.68139 37126 ft 478 kts 159°
2026-04-24 16:22 57.56749 6.75643 37104 ft 477 kts 159°
2026-04-24 16:23 57.50672 6.80614 37110 ft 477 kts 159°
2026-04-24 16:24 57.41549 6.88040 37091 ft 477 kts 159°
2026-04-24 16:24 57.35478 6.92980 37119 ft 476 kts 159°
2026-04-24 16:25 57.29406 6.97890 37115 ft 475 kts 160°
2026-04-24 16:25 57.23348 7.02760 37115 ft 475 kts 159°
2026-04-24 16:26 57.14305 7.10006 37117 ft 473 kts 159°
2026-04-24 16:27 57.05242 7.17226 37114 ft 473 kts 159°
2026-04-24 16:27 56.99201 7.22034 37111 ft 473 kts 160°
2026-04-24 16:28 56.94135 7.26031 37117 ft 473 kts 159°
2026-04-24 16:28 56.85051 7.33165 37096 ft 473 kts 159°
2026-04-24 16:29 56.79019 7.37906 37120 ft 472 kts 159°
2026-04-24 16:30 56.66998 7.47279 37132 ft 470 kts 159°
2026-04-24 16:30 56.60983 7.51963 37116 ft 470 kts 160°
2026-04-24 16:31 56.54980 7.56600 37143 ft 469 kts 159°
2026-04-24 16:31 56.48978 7.61229 37147 ft 468 kts 159°
2026-04-24 16:32 56.42990 7.65826 37133 ft 467 kts 160°
2026-04-24 16:32 56.37003 7.70411 37140 ft 467 kts 159°
2026-04-24 16:33 56.31016 7.74966 37146 ft 466 kts 160°
2026-04-24 16:33 56.25052 7.79497 37158 ft 465 kts 160°
2026-04-24 16:34 56.19084 7.84009 37153 ft 464 kts 160°
2026-04-24 16:34 56.13142 7.88511 37160 ft 464 kts 160°
2026-04-24 16:35 56.07196 7.93001 37160 ft 463 kts 160°
2026-04-24 16:35 56.01298 7.97435 37160 ft 463 kts 160°
2026-04-24 16:36 55.95358 8.01867 37154 ft 463 kts 160°
2026-04-24 16:36 55.89418 8.06283 37156 ft 462 kts 160°
2026-04-24 16:37 55.83483 8.10688 37152 ft 462 kts 160°
2026-04-24 16:37 55.77552 8.15081 37147 ft 462 kts 160°
2026-04-24 16:38 55.71618 8.19456 37155 ft 461 kts 160°
2026-04-24 16:38 55.65691 8.23815 37153 ft 461 kts 160°
2026-04-24 16:39 55.59753 8.28160 37157 ft 461 kts 160°
2026-04-24 16:39 55.53822 8.32484 37137 ft 461 kts 160°
2026-04-24 16:40 55.47889 8.36815 37138 ft 461 kts 161°
2026-04-24 16:40 55.41965 8.41125 37147 ft 461 kts 161°
2026-04-24 16:41 55.36075 8.45376 37151 ft 460 kts 161°
2026-04-24 16:41 55.30146 8.49647 37150 ft 460 kts 161°
2026-04-24 16:42 55.24220 8.53903 37152 ft 460 kts 161°
2026-04-24 16:42 55.21266 8.56023 36645 ft 458 kts 161°
2026-04-24 16:42 55.18323 8.58141 35939 ft 457 kts 161°
2026-04-24 16:43 55.15381 8.60256 35352 ft 457 kts 161°
2026-04-24 16:43 55.12437 8.62362 35138 ft 458 kts 161°
2026-04-24 16:43 55.06514 8.66569 35139 ft 460 kts 161°
2026-04-24 16:44 55.00583 8.70765 35145 ft 460 kts 161°
2026-04-24 16:44 54.94645 8.74955 35127 ft 460 kts 161°
2026-04-24 16:45 54.91682 8.77047 34684 ft 459 kts 161°
2026-04-24 16:45 54.88725 8.79163 33863 ft 461 kts 158°
2026-04-24 16:45 54.85983 8.82085 33000 ft 468 kts 142°
2026-04-24 16:45 54.83627 8.85986 32318 ft 467 kts 137°
2026-04-24 16:46 54.81292 8.90057 31764 ft 486 kts 137°
2026-04-24 16:46 54.78907 8.94310 31312 ft 498 kts 135°
2026-04-24 16:46 54.76541 8.98758 31205 ft 504 kts 134°
2026-04-24 16:46 54.74147 9.03203 31262 ft 505 kts 136°
2026-04-24 16:47 54.69245 9.11761 31464 ft 503 kts 137°
2026-04-24 16:47 54.66733 9.15967 31589 ft 502 kts 137°
2026-04-24 16:47 54.64299 9.20260 31720 ft 501 kts 136°
2026-04-24 16:48 54.61834 9.24454 32072 ft 493 kts 139°
2026-04-24 16:48 54.59426 9.28463 32471 ft 470 kts 137°
2026-04-24 16:48 54.54747 9.36579 31920 ft 496 kts 136°
2026-04-24 16:49 54.52259 9.40801 31681 ft 504 kts 138°
2026-04-24 16:49 54.49728 9.44980 31654 ft 506 kts 139°
2026-04-24 16:49 54.44554 9.53301 31352 ft 515 kts 140°
2026-04-24 16:50 54.39492 9.61393 31497 ft 473 kts 139°
2026-04-24 16:50 54.37131 9.65237 31032 ft 465 kts 139°
2026-04-24 16:50 54.34810 9.69051 30517 ft 460 kts 139°
2026-04-24 16:51 54.32519 9.72834 30002 ft 454 kts 139°
2026-04-24 16:51 54.30253 9.76571 29434 ft 450 kts 139°
2026-04-24 16:51 54.28011 9.80257 28879 ft 445 kts 139°
2026-04-24 16:51 54.25812 9.83857 28343 ft 441 kts 139°
2026-04-24 16:52 54.23601 9.87456 27809 ft 437 kts 139°
2026-04-24 16:52 54.21401 9.91028 27269 ft 433 kts 139°
2026-04-24 16:52 54.19197 9.94597 26750 ft 430 kts 139°
2026-04-24 16:52 54.17060 9.98051 26249 ft 427 kts 139°
2026-04-24 16:53 54.14907 10.01531 25751 ft 425 kts 139°
2026-04-24 16:53 54.12768 10.04988 25240 ft 422 kts 139°
2026-04-24 16:53 54.10649 10.08416 24794 ft 420 kts 139°
2026-04-24 16:53 54.08536 10.11829 24323 ft 417 kts 139°
2026-04-24 16:54 54.06427 10.15222 23850 ft 415 kts 139°
2026-04-24 16:54 54.04340 10.18574 23317 ft 412 kts 139°
2026-04-24 16:54 54.02260 10.21913 22783 ft 410 kts 139°
2026-04-24 16:54 54.00186 10.25234 22263 ft 408 kts 139°
2026-04-24 16:55 53.98136 10.28529 21799 ft 405 kts 136°
2026-04-24 16:55 53.96458 10.32348 21352 ft 403 kts 116°
2026-04-24 16:55 53.95608 10.36824 20906 ft 397 kts 96°
2026-04-24 16:55 53.95664 10.41440 20456 ft 389 kts 77°
2026-04-24 16:56 53.96201 10.45926 19997 ft 386 kts 75°
2026-04-24 16:56 53.96776 10.50350 19574 ft 383 kts 75°
2026-04-24 16:56 53.97350 10.54743 19165 ft 380 kts 75°
2026-04-24 16:56 53.97917 10.59113 18763 ft 377 kts 75°
2026-04-24 16:57 53.98452 10.63439 17933 ft 374 kts 78°
2026-04-24 16:57 53.98434 10.67858 17012 ft 376 kts 99°
2026-04-24 16:57 53.97516 10.72002 16121 ft 377 kts 121°
2026-04-24 16:57 53.95814 10.75340 15252 ft 374 kts 143°
2026-04-24 16:58 53.93559 10.77438 14413 ft 368 kts 165°
2026-04-24 16:58 53.91070 10.78077 13546 ft 360 kts 182°
2026-04-24 16:58 53.88580 10.78065 12635 ft 356 kts 184°
2026-04-24 16:58 53.86108 10.77989 11748 ft 354 kts 185°
2026-04-24 16:59 53.83659 10.77896 10886 ft 351 kts 185°
2026-04-24 16:59 53.81247 10.77795 10354 ft 338 kts 185°
2026-04-24 16:59 53.76861 10.77631 10132 ft 294 kts 185°
2026-04-24 17:00 53.74841 10.77549 10135 ft 299 kts 187°
2026-04-24 17:00 53.70830 10.74389 10136 ft 349 kts 232°
2026-04-24 17:00 53.69596 10.71093 10040 ft 320 kts 255°
2026-04-24 17:01 53.69695 10.64482 9458 ft 266 kts 293°
2026-04-24 17:01 53.70313 10.61569 8782 ft 262 kts 294°
2026-04-24 17:02 53.71558 10.55847 7394 ft 260 kts 295°
2026-04-24 17:02 53.72167 10.53010 7164 ft 251 kts 294°
2026-04-24 17:02 53.72742 10.50291 7114 ft 247 kts 294°
2026-04-24 17:02 53.73332 10.47523 7114 ft 247 kts 294°
2026-04-24 17:03 53.74432 10.42324 6670 ft 225 kts 294°
2026-04-24 17:03 53.74952 10.39834 6118 ft 224 kts 294°
2026-04-24 17:03 53.75469 10.37365 5570 ft 222 kts 294°
2026-04-24 17:04 53.75982 10.34930 5034 ft 219 kts 294°
2026-04-24 17:04 53.76096 10.29819 3976 ft 223 kts 265°
2026-04-24 17:04 53.75818 10.27248 3488 ft 221 kts 264°
2026-04-24 17:05 53.75505 10.24736 3035 ft 220 kts 255°
2026-04-24 17:05 53.74691 10.22549 2959 ft 228 kts 236°
2026-04-24 17:05 53.72659 10.18405 2867 ft 230 kts 236°
2026-04-24 17:06 53.71646 10.16338 2607 ft 227 kts 236°
2026-04-24 17:06 53.69706 10.12388 2016 ft 203 kts 236°
2026-04-24 17:06 53.68848 10.10644 1767 ft 184 kts 235°
2026-04-24 17:07 53.68317 10.09565 1605 ft 170 kts 237°
2026-04-24 17:07 53.67394 10.07688 1302 ft 146 kts 237°
2026-04-24 17:07 53.66188 10.05229 922 ft 130 kts 238°
2026-04-24 17:08 53.65062 10.02945 581 ft 124 kts 239°
2026-04-24 17:08 53.64502 10.01810 395 ft 127 kts 235°
2026-04-24 17:08 53.63944 10.00663 218 ft 124 kts 239°
2026-04-24 17:09 53.62948 9.98642 49 ft 75 kts 230°
2026-04-24 17:09 53.62556 9.97847 48 ft 22 kts 231°
2026-04-24 17:10 53.62440 9.97844 49 ft 14 kts 128°
2026-04-24 17:10 53.62542 9.98252 50 ft 19 kts 51°
2026-04-24 17:11 53.62762 9.98698 50 ft 15 kts 50°
2026-04-24 17:12 53.63078 9.99349 50 ft 16 kts 54°